Content
SEND FEEDBACK

Daily
Averages
Monthly
Summary
France

LE HAVRE, FRANCE


Home > Europe > France
Elevation: 338 feet     Latitude: 49 31N     Longitude: 000 04E

WEATHER
 
SELECT A DAY
Number of Records: 176,032;   Date Range: 3/4/97 - 7/27/14
 
SHARE

PRINT THIS DATA

[ ← Previous Day ]
WEATHER ALMANAC - JUNE 24, 2013
[ Next Day → ]
[ °C ]   °F
We're sorry. There is no daily almanac available for Le Havre, France on June 24, 2013.
WEATHER BY HOUR - JUNE 24, 2013
[ °C ]   °F
Local TimeTemperatureDewpointHumidityBarometerVisibilityWind DirectionWind SpeedGust SpeedPrecipitationEventsConditions
12:30 AM55.4 °F48.2 °F77 %30.12 in6.2 miWest (260°)18.4 mphOvercast
1:00 AM53.6 °F48.2 °F82 %30.12 in6.2 miWest (260°)17.3 mphOvercast
1:30 AM53.6 °F48.2 °F82 %30.12 in6.2 miWest (260°)18.4 mphOvercast
2:00 AM53.6 °F50.0 °F88 %30.12 in6.2 miWest (270°)19.6 mphMostly Cloudy
2:30 AM53.6 °F48.2 °F82 %30.12 in6.2 miWest (280°)17.3 mphOvercast
3:00 AM53.6 °F48.2 °F82 %30.12 in6.2 miWest (280°)17.3 mphMostly Cloudy
3:30 AM53.6 °F48.2 °F82 %30.15 in6.2 miWest (280°)16.1 mph27.6 mphMostly Cloudy
4:00 AM53.6 °F48.2 °F82 %30.15 in6.2 miWest (280°)15.0 mph
4:30 AM53.6 °F48.2 °F82 %30.15 in6.2 miWest (280°)15.0 mphMostly Cloudy
5:00 AM53.6 °F48.2 °F82 %30.15 in6.2 miWest (280°)12.7 mphMostly Cloudy
5:30 AM53.6 °F48.2 °F82 %30.15 in6.2 miWest (280°)15.0 mph27.6 mphMostly Cloudy
6:00 AM53.6 °F48.2 °F82 %30.18 in6.2 miWest (280°)15.0 mphOvercast
6:30 AM53.6 °F48.2 °F82 %30.18 in6.2 miWNW (290°)13.8 mphOvercast
7:00 AM53.6 °F46.4 °F77 %30.18 in6.2 miWNW (290°)16.1 mphOvercast
7:30 AM53.6 °F46.4 °F77 %30.18 in6.2 miWNW (300°)15.0 mphOvercast
8:00 AM53.6 °F48.2 °F82 %30.21 in6.2 miWNW (300°)11.5 mphOvercast
8:30 AM53.6 °F48.2 °F82 %30.21 in6.2 miWNW (300°)15.0 mphOvercast
9:00 AM53.6 °F48.2 °F82 %30.21 in6.2 miWNW (290°)15.0 mphOvercast
9:30 AM55.4 °F48.2 °F77 %30.24 in6.2 miWNW (300°)15.0 mphMostly Cloudy
10:00 AM55.4 °F48.2 °F77 %30.24 in6.2 miWNW (290°)16.1 mphOvercast
10:30 AM55.4 °F48.2 °F77 %30.24 in6.2 miWNW (290°)16.1 mphMostly Cloudy
11:00 AM55.4 °F48.2 °F77 %30.24 in6.2 miWNW (290°)15.0 mphOvercast
11:30 AM55.4 °F48.2 °F77 %30.24 in6.2 miWNW (290°)15.0 mphOvercast
12:00 PM57.2 °F48.2 °F72 %30.27 in6.2 miWest (280°)15.0 mphMostly Cloudy
12:30 PM57.2 °F48.2 °F72 %30.27 in6.2 miWest (280°)13.8 mphMostly Cloudy
1:00 PM57.2 °F48.2 °F72 %30.27 in6.2 miWNW (290°)13.8 mphMostly Cloudy
1:30 PM57.2 °F48.2 °F72 %30.27 in6.2 miWNW (290°)13.8 mphMostly Cloudy
2:00 PM57.2 °F48.2 °F72 %30.27 in6.2 miWest (280°)13.8 mphOvercast
2:30 PM59.0 °F50.0 °F72 %30.27 in6.2 miWNW (290°)13.8 mphMostly Cloudy
3:00 PM57.2 °F48.2 °F72 %30.27 in6.2 miWNW (290°)13.8 mphOvercast
3:30 PM57.2 °F48.2 °F72 %30.30 in6.2 miWNW (300°)15.0 mph
4:00 PM57.2 °F48.2 °F72 %30.30 in6.2 miWNW (300°)13.8 mph
4:30 PM57.2 °F48.2 °F72 %30.30 in6.2 miWNW (300°)13.8 mphMostly Cloudy
5:00 PM57.2 °F48.2 °F72 %30.30 in6.2 miWNW (300°)13.8 mphPartly Cloudy
5:30 PM59.0 °F48.2 °F67 %30.30 in6.2 miWNW (300°)12.7 mph
6:00 PM57.2 °F48.2 °F72 %30.30 in6.2 miWNW (300°)13.8 mph
6:30 PM57.2 °F48.2 °F72 %30.30 in6.2 miWNW (300°)12.7 mph
7:00 PM57.2 °F48.2 °F72 %30.30 in6.2 miNW (310°)10.4 mph
7:30 PM57.2 °F46.4 °F67 %30.30 in6.2 miWNW (300°)10.4 mph
8:00 PM55.4 °F44.6 °F67 %30.30 in6.2 miNW (310°)10.4 mph
8:30 PM55.4 °F46.4 °F72 %30.30 in6.2 miNW (320°)9.2 mph
9:00 PM55.4 °F44.6 °F67 %30.30 in6.2 miWNW (300°)6.9 mph
9:30 PM53.6 °F46.4 °F77 %30.30 in6.2 miNW (310°)6.9 mphPartly Cloudy
10:00 PM53.6 °F46.4 °F77 %30.33 in6.2 miNW (310°)5.8 mph
10:30 PM53.6 °F46.4 °F77 %30.33 in6.2 miWNW (300°)6.9 mphMostly Cloudy
11:00 PM53.6 °F48.2 °F82 %30.33 in6.2 miWest (280°)6.9 mph
11:30 PM51.8 °F46.4 °F82 %30.33 in6.2 miWest (280°)3.5 mph
Hourly data recorded from LFOH, located miles away from Le Havre, France







STORIES FROM OUR PARTNERS